THOR ABLESTAR DEB, 715

Orbit data source: Space-Track

THOR ABLESTAR DEB, 715 is space debris in LEO originally from a launch on Thu, 05 Dec 1963 UTC launched from the Air Force Western Test Range (AFWTR). Debris objects in space refer to the collection of defunct objects orbiting the Earth. Examples of debris include non-operational satellites, rocket bodies, and fragments generated from explosions, collisions, or faulty payload assembly.

Loading next visibility...
Identifier
715, 1963-049E
Orbit
LEO
Last TLE update
21 hours ago
Origin
Manufacturer
Unknown
Mission
Spacecraft
Bus & Motor
Unknown
Mass
Unknown
Launch date (UTC)
1963-12-05 (61 years ago)
Launch vehicle
Unknown
Launch site
Air Force Western Test Range (AFWTR)
Object type
Payload
Rocket body
Debris
Shape & HBR
Unknown
Radar Cross Section
Small (<0.1 m²)

Expand to show TLE details & history

TLE from 21 hours ago
0 THOR ABLESTAR DEB
1 00715U 63049E   25128.36216966  .00001069  00000-0  11088-2 0  9998
2 00715  89.9098  81.4463 0028170 306.6143 207.5556 13.74902312 47749
Epoch: 2025-05-08T08:41Z
Definitive object data (Epoch: 2025-05-08T08:41:31.458Z)
Latitude
26.00967°
Longitude
-95.41232°
Altitude
1,003.664 km
Speed
7.343 km/s
True Right ascension
17h 25m 36s
True Declination
25° 52' 44"
Sunlit
Object was in full shadow at TLE epoch
Visualization TLE readout
Latitude
87.51225°
Longitude
-97.44252°
Altitude
1,013.556 km
Speed
7.343 km/s
Apparent Right ascension
01h 16m 41s
Apparent Declination
34° 50' 12"
Sunlit
Object is in daylight
Visualization observer readout
Local Sidereal Time
13:29:45
Azimuth
2.779° NNE
Elevation
-15.187°
Doppler factor
1
Orbital elements
Apogee altitude
999.762 km
Perigee altitude
958.312 km
Semi-major axis
7,357.174 km
Eccentricity
0.002817
Inclination
89.9098°
RAAN
81.4463°
Arg. of periapsis
306.6143°
True anomaly
207.40673°
Mean anomaly
207.5556°
Eccentric anomaly
207.48112°
Mean motion
3.43935 °/min
BSTAR
0.0011088
Orbital period
104.67 mins
Loading maneuver chart data...
Loading SW <> Apogee altitude chart data...
Loading historical data...
Loading historical data...
Loading historical data...
Loading historical data...
Loading historical data...
Loading historical data...
Loading historical data...

THOR ABLESTAR DEB Visibility forecast

Observer location: undefined°, undefined°

Span
Click to sort rows by Start time (UTC) header in descending order
Start Az.
Max El. time (UTC)
Max El. Az.
Max El.
End time (UTC)
End Az.
11 mins2025-05-09 08:59:06.211Z6.669° NNE2025-05-09 09:05:06.211Z126.126° SE43.356°2025-05-09 09:10:06.211Z175.488° S
6 mins2025-05-09 10:46:06.211Z313.462° NW2025-05-09 10:48:06.211Z292.439° WNW15.755°2025-05-09 10:52:06.211Z252.381° W
11 mins2025-05-09 20:44:06.211Z156.467° SSE2025-05-09 20:49:06.211Z81.384° E39.817°2025-05-09 20:55:06.211Z6.669° NNE
7 mins2025-05-09 22:31:06.211Z245.778° WSW2025-05-09 22:34:06.211Z281.205° WNW19.562°2025-05-09 22:38:06.211Z324.092° NNW
|